Regional Weather Roundup
Issued by NWS Pendleton, OR

Home | Current Version | Previous Version | Text Only | Print | Product List | Glossary On
Versions: 1 2 3 4 5 6 7 8 9 10 11 12 13 14 15 16 17 18 19 20 21 22 23 24 25 26 27 28 29 30 31 32 33 34 35 36 37 38 39 40 41 42 43 44 45 46 47 48 49 50
000
ASUS46 KPDT 030225
RWRPDT
PENDLETON REGIONAL WEATHER ROUNDUP
NATIONAL WEATHER SERVICE PENDLETON OREGON
700 PM PDT WED SEP 2 2015

NOTE: FAIR INDICATES FEW OR NO CLOUDS BELOW 12,000 FEET WITH NO
SIGNIFICANT WEATHER AND/OR OBSTRUCTIONS TO VISIBILITY.

# INDICATES UNOFFICIAL STATION AND DATA

WAZ520-030310-
EAST SLOPES OF WASHINGTON CASCADES

CITY            SKY/WX      TMP DP  RH  WIND    PRES   REMARKS
#BULLFROG 2SW   N/A         52  40  63  CALM    27.53R
#BUMPING DAM    N/A         51  N/A N/A S2      N/A
#CLE ELUM HS    N/A         56  40  55  NW3     29.86S
#CLE ELUM LAKE  N/A         52  40  63  CALM    29.84S
#CLIFFDEL 2NW   N/A         50  42  74  CALM    N/A
#GLENWOOD       N/A         59  40  49  S2      29.85R
#MANASTASH CYN  N/A         53  37  54  CALM    29.87R
#NELSON         N/A         56  43  62  CALM    29.88R
#NELSON 3SW     N/A         51  41  68  CALM    30.06S
#NILE           N/A         55  40  57  W1      29.11S
#RONALD 2NW     N/A         56  38  51  CALM    29.80S
#TEANAWAY 4NE   N/A         58  40  51  SW6     N/A
#TROUT LAKE 1NE N/A         58  45  62  W6      29.88S
$$

WAZ521-030310-
SIMCOE HIGHLANDS

CITY            SKY/WX      TMP DP  RH  WIND    PRES   REMARKS
#BICKLETON HS   N/A         59  27  29  W8      N/A
#CENTERVILLE 4W N/A         62  44  52  CALM    29.63S
#CENTERVILLE 1SWN/A         61  43  51  W16     29.82R
#GOLDENDALE     N/A         64  38  38  W17G29  N/A
#GOLDENDALE 1NE N/A         62  29  28  SW5     N/A
#GOLDENDALE 5WNWN/A         62  42  48  W16     29.82R
#GOODNOE HILLS  N/A         64  43  46  W21     N/A
#LYLE 6NE       N/A         60  49  67  SW10    29.83S
$$

WAZ026-030310-
KITTITAS VALLEY

CITY            SKY/WX      TMP DP  RH  WIND    PRES   REMARKS
ELLENSBURG AP   CLEAR       63  37  38  NW24G30 29.86S
#ELLENSBURG CWU N/A         60  40  47  N15     29.78R
#ELLENSBURG 3NE N/A         59  39  47  N8      29.86S
#ELLENSBURG 1E  N/A         60  34  37  NW1     N/A
#KITTITAS 4N    N/A         59  38  45  N9      29.86S
#KITTITAS 3S    N/A         59  42  53  NW7     29.80R
#THORP 6N       N/A         55  39  55  NW20G32 29.85S
$$

WAZ027-030310-
YAKIMA VALLEY

CITY            SKY/WX      TMP DP  RH  WIND    PRES   REMARKS
SUNNYSIDE AP    PTCLDY      66  41  40  SW9     29.81R
YAKIMA AIRPORT  MOCLDY      69  37  31  W15     29.84R
YAKIMA-VAGABOND MOCLDY      66  36  33  NW14    29.84R
#DONALD 2NE     N/A         69  19  15  W3      28.69R
#GRANDVIEW      N/A         68  37  32  W2      29.80R
#MABTON         N/A         70  43  38  W6      29.80S
#NACHES 2SW     N/A         60  42  51  W7      29.85R
#OUTLOOK DOT    N/A         N/A N/A N/A W8      N/A
#SELAH 8E       N/A         61  37  41  NW8     N/A
#TERRACE HTS    N/A         65  37  35  NW7     29.77R
#WAPATO 4NE     N/A         69  19  15  W3      28.69R
#W YAKIMA       N/A         63  38  39  SW5     29.80
#WHITE SWAN 5E  N/A         67  40  37  W15     29.80R
#WILEY CITY 3W  N/A         63  30  29  W5      29.81R
$$

WAZ028-030310-
LOWER COLUMBIA BASIN...WASHINGTON

CITY            SKY/WX      TMP DP  RH  WIND    PRES   REMARKS
PASCO           CLEAR       74  40  29  SW12    29.80S
#CONNELL 5N     N/A         69  44  40  SW7     29.77R
#CONNELL 5NW    N/A         67  46  47  CALM    29.73S
#ELTOPIA 6NW    N/A         69  48  47  SW5     28.77F
#KAHLOTUS       N/A         69  45  42  SW7     29.77S
#KENNEWICK      N/A         52  40  63  CALM    27.53R
#KENNEWICK 3S   N/A         70  40  34  N6      29.78S
#PASCO-BROADMOORN/A         76  41  28  NW5     29.66S
#PATERSON       N/A         70  43  38  W7      29.78S
#PROSSER        N/A         69  35  28  W7      29.78R
#SAGEMOOR 2W    N/A         71  49  46  CALM    29.62S
#TOUCHET 2S     N/A         71  49  46  S6      29.78S
#WEST PASCO     N/A         73  45  37  W2      29.74S
$$

WAZ029-030310-
FOOTHILLS OF THE BLUES...WASHINGTON

CITY            SKY/WX      TMP DP  RH  WIND    PRES   REMARKS
WALLA WALLA AP  MOCLDY      69  46  44  S8      29.84S
#DAYTON SCHOOL  N/A         66  40  38  N5      29.85S
#LOWDEN 2SE     N/A         70  48  46  SW3     29.78S
#PLEASANT VIEW 1N/A         64  44  48  SE9     29.82S
#PRESCOTT       N/A         69  48  47  SE3     29.79S
#SUDBURY        N/A         68  N/A N/A CALM    N/A
#WHITMAN COLLEGEN/A         68  50  53  SE1     29.85S
#WAITSBURG 5S   N/A         64  48  56  SE7     29.89F
#WAITSBURG 8N   N/A         63  22  21  S3      29.68S
#WALLA WALLA U  N/A         69  51  53  CALM    29.80S
#WHITMAN MISSIONN/A         69  53  57  CALM    29.80F
$$

WAZ030-030310-
BLUE MOUNTAINS...WASHINGTON

CITY            SKY/WX      TMP DP  RH  WIND    PRES   REMARKS
#DIXIE 5SE      N/A         58  44  60  SE2     29.82F
#SKI BLUEWOOD   N/A         48  43  83  CALM    29.92S
$$

ORZ009-041-WAZ024-030310-
COLUMBIA RIVER GORGE

CITY            SKY/WX      TMP DP  RH  WIND    PRES   REMARKS
THE DALLES AP   CLOUDY      68  45  44  W14G24  29.87S
#ARLINGTON AIRPON/A         65  43  45  W16     N/A
#MOSIER 1S      N/A         62  41  46  NW3     29.90S

$$

ORZ510-030310-
NORTH CENTRAL OREGON

CITY            SKY/WX      TMP DP  RH  WIND    PRES   REMARKS
#CHENOWITH 1W   N/A         59  46  62  NW18    N/A
#DUFUR 9E       N/A         56  44  64  W8      29.91S
#GRASS VALLEY 1SN/A         56  42  59  W9      29.91R
#MAUPIN SCHOOL  N/A         64  45  50  W2      29.91R
#MORO SCHOOL    N/A         59  49  69  W8      29.90R
#SHANIKO 4NW    N/A         52  39  61  NW12    29.92S
#TYGH VALLEY 2NEN/A         64  47  54  SW1     29.84R
#WAPANITIA AIRPON/A         59  42  53  W9      29.87R
#WASCO AIRPORT  N/A         60  43  53  W13     N/A
#WASCO 5NE      N/A         60  44  55  CALM    29.83S
$$

ORZ511-030310-
CENTRAL OREGON

CITY            SKY/WX      TMP DP  RH  WIND    PRES   REMARKS
BEND AIRPORT    MOCLDY      54  37  52  N9      29.94R
PRINEVILLE AP   CLOUDY      55  37  51  W15     29.93R
REDMOND AIRPORT MOCLDY      56  38  51  NW14    29.93R
#BEND 1SW       N/A         55  40  57  CALM    N/A
#BEND-AWBREY    N/A         57  40  53  CALM    29.83R
#BEND-KIM LN    N/A         55  42  61  NW2     29.91R
#CULVER         N/A         59  40  49  NW1     29.89R
#LAKE BILLY CHINN/A         59  10  14  NW16    29.97S
#MADRAS         N/A         59  42  53  N10     N/A
#POWELL BUTTE 3EN/A         59  42  53  NW12    N/A
#POWELL BUTTE   N/A         55  40  57  N8      29.58R
#PRINEVILLE 3N  N/A         56  42  59  W7      29.80R
#WARM SPRINGS   N/A         62  43  50  SW8     29.89R

$$


ORZ509-030310-
EAST SLOPES OF OREGON CASCADES

CITY            SKY/WX      TMP DP  RH  WIND    PRES   REMARKS
#CAMP SHERMAN   N/A         54  42  64  CALM    29.90R
#LA PINE 4NW    N/A         53  41  64  W2      29.88R
#SISTERS AIRPOR N/A         54  47  77  N8      30.17S
#SISTERS 3N     N/A         54  37  52  S2      29.96S
#SUNRIVER       N/A         52  41  66  SW3     29.73R
#TUMALO 3W      N/A         54  40  59  NW15    29.73R

$$

ORZ044-030310-
LOWER COLUMBIA BASIN...OREGON

CITY            SKY/WX      TMP DP  RH  WIND    PRES   REMARKS
HERMISTON       PTCLDY      71  41  34  W10     29.82S
#BOARDMAN SCHOOLN/A         70  45  41  SW7     29.83R
#BOARDMAN 8SW   N/A         70  45  41  SW12    29.80S
#ECHO 8SW       N/A         71  40  32  W9      29.84R
#IONE SCHOOL    N/A         66  41  40  W9      29.83R
#IRRIGON 4NW    N/A         73  44  35  SW12    N/A
#UMATILLA SCHOOLN/A         71  51  49  CALM    29.85S
#UMATILLA       N/A         72  41  33  SW3     29.73S
$$

ORZ507-030310-
NORTHERN FOOTHILLS OF THE BLUES

CITY            SKY/WX      TMP DP  RH  WIND    PRES   REMARKS
PENDLETON AIRPT MOCLDY      68  41  37  NW8     29.84F
#ATHENA         N/A         65  47  52  CALM    29.83S
#CAYUSE         N/A         65  48  54  E5      29.80S
#HELIX SCHOOL   N/A         63  47  56  SE7     29.80F
#HELIX 3N       N/A         64  45  50  S9      29.84S
#HOLDMAN 5SE    N/A         69  44  40  W8      29.85F
#HOLDMAN 6E     N/A         68  43  40  E2      29.62S
#M-F GROVE ELEM N/A         66  45  47  E5      29.83S
#M-FREEWATER 5SEN/A         64  49  58  E1      29.84F
#PENDLETON DNTN N/A         69  41  36  S1      29.87S
#PDT AQUATIC CTRN/A         68  44  42  VRB1    29.83S
#PDT SUNRIDGE   N/A         69  47  45  S1      29.85S
#PENDLETON 7NW  N/A         68  46  45  W8      32.07S
#PILOT ROCK     N/A         65  49  56  S1      29.88S
#TUTUILLA       N/A         65  50  58  CALM    29.83S
#UMAPINE 2E     N/A         68  52  57  SE2     29.80S
#WESTON SCHOOL  N/A         64  44  48  SW1     29.78F

$$

ORZ508-030310-
SOUTHERN FOOTHILLS OF THE BLUES

CITY            SKY/WX      TMP DP  RH  WIND    PRES   REMARKS
#AJAX           N/A         59  39  47  SW8     29.85R
#CONDON 5W      N/A         55  40  57  NW13    29.88
#FOSSIL SCHOOL  N/A         66  51  58  CALM    29.94S
#HEPPNER EOC    N/A         61  39  44  W8G25   29.77R
#HEPPNER 4NE    N/A         60  39  46  NW12    29.82R
#LEXINGTON 2SE  N/A         64  42  45  NW8     29.85R
#OLEX 4N        N/A         64  45  50  W20G26  29.85R
#RUGGS 5NE      N/A         59  37  44  W14     30.07S
#RUGGS 2SW      N/A         59  40  49  NW10    29.85R

$$

ORZ502-503-030310-
BLUE MOUNTAINS

CITY            SKY/WX      TMP DP  RH  WIND    PRES   REMARKS
MEACHAM         CLOUDY      52  48  86  CALM    29.91F
#HEPPNER 15SE   N/A         51  45  80  CALM    29.82S
#LONG CREEK HS  N/A         56  46  69  CALM    29.85F
#PIKES PEAK     N/A         57  41  55  S7      27.99S
#TOLLGATE       N/A         46  43  89  CALM    29.81F
#TROY SCHOOL    N/A         65  48  54  CALM    29.66R
#UKIAH          N/A         55  51  86  CALM    29.85S
#WESTON 4E      N/A         56  46  69  E3      29.78S
$$

ORZ505-030310-
JOHN DAY BASIN

CITY            SKY/WX      TMP DP  RH  WIND    PRES   REMARKS
JOHN DAY        MOCLDY      60  44  55  W9      29.89S
#JOHN DAY KJDY  N/A         64  63  97  W3      30.05R
#MITCHELL       N/A         62  47  58  CALM    30.05F
#MITCHELL 8NW   N/A         60  40  47  CALM    30.00S
#MONUMENT HS    N/A         62  48  60  VRB2    29.88S
#MT. VERNON 5SE N/A         58  43  57  W1      29.85S
#SPRAY SCHOOL   N/A         63  N/A N/A E5      N/A
$$

ORZ506-030310-
OCHOCO AND JOHN DAY HIGHLANDS

CITY            SKY/WX      TMP DP  RH  WIND    PRES   REMARKS
#PINE MTN OBS   N/A         48  36  63  N7      N/A
#PRAIRIE CITY   N/A         61  46  58  N1      29.79R
#SENECA         N/A         57  N/A N/A N5      N/A
#SENECA 9NW     N/A         58  42  55  CALM    29.73R
$$

ORZ049-030310-
GRANDE RONDE VALLEY

CITY            SKY/WX      TMP DP  RH  WIND    PRES   REMARKS
LA GRANDE       MOCLDY      61  37  41  N5      29.87F
#COVE           N/A         59  50  72  CALM    29.91F
#COVE SCHOOL    N/A         59  47  64  CALM    29.91F
#ELGIN 3N       N/A         60  40  47  CALM    29.86F
#ELGIN 1E       N/A         61  44  53  CALM    N/A
#ISLAND CITY 4N N/A         66  46  48  CALM    29.94R
#LA GRANDE ELEM N/A         60  45  58  CALM    29.91F
#UNION 1S       N/A         59  46  62  CALM    29.70S
$$

ORZ050-030310-
WALLOWA COUNTY

CITY            SKY/WX      TMP DP  RH  WIND    PRES   REMARKS
#ENTERPRISE HS  N/A         55  45  69  NW1     29.93R
#IMNAHA SCHOOL  N/A         67  47  49  N6      29.85R
#IMNAHA 10S     N/A         64  45  50  N1      29.87R
#JOSEPH 3N      N/A         53  40  61  NW7     29.95R
#JOSEPH 3W      N/A         51  44  77  CALM    29.80R
#LOSTINE        N/A         55  45  69  CALM    29.62R
#MT HOWARD 8000 N/A         44  37  76  CALM    30.02F
#WALLOWA SCHOOL N/A         57  45  64  CALM    29.88R



$$



USA.gov is the U.S. government's official web portal to all federal, state and local government web resources and services.